Flag Weather past 2 weeks in Lahore, Pakistan

Now
75 °F

Passing clouds.


Feels Like: 78 °F
Forecast: 62 / 83 °F
Wind: 3 mph from Northwest

Location: Lahore Airport

Current Time: Oct 30, 2014 at 7:29:37 PM

Latest Report: Oct 30, 2014 at 6:55 PM


Visibility: 2 mi

Pressure: 29.95 "Hg

Humidity: 54%

Dew point: 57 °F

Location of LahoreLocation

Historic Weather in Lahore — Graph

°F

Lahore temperature yesterday

Maximum temperature yesterday: 82 °F (at 1:25 PM)
Minimum temperature yesterday: 63 °F (at 4:25 AM)
Average temperature yesterday: 73 °F

Past Weeks' High & Low Weather Summary

 TemperatureHumidityPressure
High91 °F (Oct 21, 1:55 PM)100% (Oct 28, 8:30 AM)32.52 "Hg (Oct 28, 8:30 AM)
Low63 °F (Oct 16, 6:00 AM)29% (Oct 19, 2:00 PM)29.89 "Hg (Oct 19, 3:25 AM)
Average76 °F60%29.97 "Hg
* Reported Oct 15 6:25 PM — Oct 30 6:25 PM, Lahore, Weather by CustomWeather, © 2014

Note: Actual official high and low records may vary slightly from our data, if they occured in-between our weather recording intervals... More about our weather records

Advertising

Lahore weather history for previous 24 hours

 ConditionsComfort  
Time TempWeatherWind HumidityBarometerVisibility
6:25 PM
Oct 30
77 °FPassing clouds.5 mph51%29.95 "Hg2 mi
5:55 PM77 °FHaze.5 mph51%29.92 "Hg2 mi
5:30 PM79 °FWarm.13 mph45%29.92 "HgN/A
4:55 PM81 °FScattered clouds.6 mph42%29.92 "Hg2 mi
4:25 PM82 °FScattered clouds.6 mph37%29.92 "Hg2 mi
3:55 PM82 °FScattered clouds.7 mph40%29.92 "Hg2 mi
3:25 PM84 °FScattered clouds.7 mph37%29.92 "Hg2 mi
2:55 PM84 °FScattered clouds.7 mph37%29.92 "Hg2 mi
2:25 PM84 °FScattered clouds.7 mph40%29.92 "Hg2 mi
1:55 PM84 °FScattered clouds.7 mph40%29.92 "Hg2 mi
1:25 PM82 °FHaze.7 mph40%29.92 "Hg3 mi
12:55 PM82 °FHaze.7 mph40%29.95 "Hg3 mi
12:25 PM81 °FHaze.7 mph42%29.98 "Hg3 mi
11:55 AM81 °FHaze.7 mph42%29.98 "Hg3 mi
11:25 AM79 °FPassing clouds.6 mph48%29.98 "Hg2 mi
10:55 AM77 °FPassing clouds.6 mph51%30.01 "Hg2 mi
10:25 AM75 °FClear.6 mph57%30.01 "Hg2 mi
9:55 AM73 °FClear.5 mph61%30.01 "Hg1 mi
9:25 AM72 °FClear.5 mph69%30.01 "Hg1 mi
8:55 AM68 °FClear.5 mph78%29.98 "Hg1 mi
8:25 AM66 °FFog.5 mph78%29.98 "Hg1 mi
7:55 AM66 °FFog.3 mph78%29.98 "Hg1 mi
6:55 AM64 °FFog.3 mph83%29.95 "Hg1 mi
4:25 AM66 °FClear.3 mph78%29.95 "Hg2 mi
3:55 AM66 °FClear.5 mph78%29.95 "Hg2 mi
3:25 AM66 °FClear.3 mph83%29.95 "Hg2 mi
2:55 AM66 °FClear.3 mph83%29.95 "Hg2 mi
1:55 AM68 °FClear.No wind78%29.95 "Hg2 mi
1:25 AM70 °FClear.No wind73%29.95 "Hg2 mi
12:55 AM70 °FClear.3 mph73%29.95 "Hg2 mi
12:25 AM72 °FClear.3 mph69%29.95 "Hg2 mi
11:55 PM
Oct 29
72 °FClear.3 mph69%29.95 "Hg2 mi
10:55 PM72 °FClear.3 mph65%29.95 "Hg2 mi
10:25 PM72 °FClear.5 mph65%29.95 "Hg3 mi
9:55 PM73 °FClear.5 mph61%29.95 "Hg2 mi
9:25 PM73 °FClear.5 mph65%29.98 "Hg2 mi
9:00 PM73 °FClear.3 mph65%29.98 "Hg2 mi
Weather by CustomWeather, © 2014

See weather overviewHow to use our weather pages